Powrót do katalogu

STARLINK-38279

AktywnyŁącznośćSSO
NORAD 100262·PAYLOAD·🇺🇸 United States

Wystrzelony Aug 8, 2026 z Vandenberg Space Force Base

Loading…

Następne Przeloty (najbliższe 24 godziny)

TLE

ŚwieżeSource: Space-Track

Epoka: Sep 14, 2026, 13:03 UTC

1 A0262U 26181S   26257.54439054  .00234518  00000-0  15252-2 0  9994
2 A0262  97.2830 300.8572 0001120  28.6096 331.5231 15.75269294  7028

Śledź STARLINK-38279 w czasie rzeczywistym z AllMySat

Download on the App Store